Regional Weather Roundup
Issued by NWS

Home | Current Version | Previous Version | Text Only | Print | Product List | Glossary On
Versions: 1 2 3 4 5 6 7 8 9 10 11 12 13 14 15 16 17 18 19 20 21 22 23 24 25 26 27 28 29 30 31 32 33 34 35 36 37 38 39 40 41 42 43 44 45 46 47 48 49 50
000
ASUS43 KLOT 252106
RWRIL

ILLINOIS REGIONAL WEATHER ROUNDUP
NATIONAL WEATHER SERVICE CHICAGO/ROMEOVILLE IL
400 PM CDT SAT OCT 25 2014

NOTE: "FAIR" INDICATES FEW OR NO CLOUDS BELOW 12,000 FEET WITH NO
SIGNIFICANT WEATHER AND/OR OBSTRUCTIONS TO VISIBILITY.

* THESE STATIONS ARE NOT UNDER NWS QUALITY CONTROL. THEY ALSO MAY NOT
  REPORT WEATHER SUCH AS PRECIPITATION OR FOG.

ILZ001-002-007-009-015-016-024-252200-
NORTHWEST ILLINOIS

CITY           SKY/WX    TMP DP  RH WIND       PRES   REMARKS
MOLINE         SUNNY     72  33  24 NW14G20   30.00S
STERLING*      SUNNY     72  34  25 NW14      29.98S
SAVANNA*       SUNNY     71  29  20 W10       29.98F
$$

ILZ003-004-008-010-011-017-018-252200-
NORTH CENTRAL ILLINOIS

CITY           SKY/WX    TMP DP  RH WIND       PRES   REMARKS
ROCKFORD       MOSUNNY   70  28  21 NW20      29.96S
FREEPORT*      SUNNY     68  29  24 NW16G28   29.98S
ROCHELLE*      SUNNY     70  32  24 W22       29.96S
DE KALB*       SUNNY     68  28  22 NW12G24   29.95S
PERU*          SUNNY     72  31  22 NW18G25   29.98S
$$

ILZ005-006-012>014-019>023-252200-
NORTHEAST ILLINOIS

CITY           SKY/WX    TMP DP  RH WIND       PRES   REMARKS
CHICAGO-OHARE  MOSUNNY   71  27  19 W18       29.90F
CHICAGO-MIDWAY MOSUNNY   74  29  19 W18G28    29.91S
AURORA         SUNNY     72  30  21 W22G28    29.94R
LANSING*       SUNNY     72  33  24 W13G24    29.91F
JOLIET*        SUNNY     73  30  20 NW10G16   29.93S
WAUKEGAN       SUNNY     69  28  21 W12G23    29.89F
DUPAGE AIRPORT SUNNY     72  30  21 W22       29.93S
KANKAKEE*      SUNNY     73  40  29 W16       29.94S
WHEELING       SUNNY     72  24  16 NW17G29   29.92S
MORRIS*        SUNNY     74  36  25 W20G25    29.93S
ROMEOVILLE*    SUNNY     73  27  18 NW13G18   29.93R
NORTHERLY ISL    N/A     72  25  17 W8          N/A
$$

LMZ740>746-252200-
SOUTHERN LAKE MICHIGAN

STATION/POSITION SKY/WX   TEMP    WIND        PRES    VSBY  WAVE
                          AIR SEA DIR/SP/G                  HT/PER
                          (F)     (DEG/KT/KT) (MB)    (MI)  (FT/S)
SOUTHERN BUOY              59 54  260/ 12/ 14 1011.7F
WAUKEGAN HARBOR            70     290/ 16/ 23   N/A
HARRISON CRIB              69     290/ 17/ 22   N/A
BURNHAM HARBOR             72     270/  7/ 18   N/A
CALUMET HARBOR             73     260/ 10/ 18 1011.4F
MICHIGAN CITY              63     220/  6/  7   N/A
$$

ILZ025>027-034>036-040-047-049-050-058-095>099-252200-
WEST-CENTRAL ILLINOIS

CITY           SKY/WX    TMP DP  RH WIND       PRES   REMARKS
QUINCY         SUNNY     76  46  34 NW8       30.02S HAZE
GALESBURG*     SUNNY     72  40  31 NW13      30.01S
MACOMB*        SUNNY     74  39  28 NW10      30.03S
JACKSONVILLE*  SUNNY     80  46  30 NW7       30.00F
PITTSFIELD*    SUNNY     80  44  28 NW6       30.02S
$$

ILZ028>032-037-038-041>044-048-051>054-059>061-252200-
CENTRAL ILLINOIS

CITY           SKY/WX    TMP DP  RH WIND       PRES   REMARKS
PONTIAC        SUNNY     74  37  26 W15G24    29.98R
BLOOMINGTON    SUNNY     74  47  38 NW10      30.00S
DECATUR        SUNNY     77  45  32 NW13G18   29.99S
PEORIA         SUNNY     77  38  24 NW9       29.99S
LACON*         SUNNY     73  36  26 NW10      29.98S
LINCOLN*       SUNNY     77  46  33 NW5       29.97S
SPRINGFIELD    SUNNY     80  47  31 N8        30.00S
TAYLORVILLE    SUNNY     79  46  31 NW10      29.99S
$$

ILZ033-039-045-046-055>057-062-063-252200-
EAST-CENTRAL ILLINOIS

CITY           SKY/WX    TMP DP  RH WIND       PRES   REMARKS
CHAMPAIGN      SUNNY     77  46  33 NW12      29.97S
DANVILLE*      SUNNY     75  46  35 NW10      29.93S
RANTOUL*       SUNNY     77  46  33 NW12      29.97R
MATTOON        SUNNY     77  50  38 W13       29.97F
PARIS*         SUNNY     78  47  33 W13G22    29.97S
$$

ILZ079-100>102-252200-
SOUTHWEST ILLINOIS

CITY           SKY/WX    TMP DP  RH WIND       PRES   REMARKS
BELLEVILLE     SUNNY     79  56  44 NW7       30.00R HX  80
CAHOKIA*       SUNNY     81  54  39 NW3       30.00S HX  81
SPARTA*        SUNNY     79  56  44 N5        30.01S
$$

ILZ064>066-069>071-074>076-080>082-084>086-088>090-092>094-252200-
SOUTH-CENTRAL ILLINOIS

CITY           SKY/WX    TMP DP  RH WIND       PRES   REMARKS
CARBONDALE     SUNNY     81  54  39 NW8       30.00S HX  81
CAIRO*         SUNNY     82  60  46 NW5       30.00S HX  83
EFFINGHAM*     SUNNY     79  47  32 W6        30.00R HAZE
MARION         SUNNY     81  57  44 NW8       30.00F HX  81
MT. VERNON     SUNNY     79  52  38 NW5       30.01R
CENTRALIA*     SUNNY     78  49  35 W6        30.00S
SALEM*         SUNNY     80  54  40 NW5       30.00S HX  80
METROPOLIS*    SUNNY     80  61  53 W6        29.99S HX  81
$$

ILZ067-068-072-073-078-083-087-091-252200-
SOUTHEAST ILLINOIS

CITY           SKY/WX    TMP DP  RH WIND       PRES   REMARKS
LAWRENCEVILLE  HAZE      79  53  40 NW7       29.97F VSB 3/4
FLORA*         SUNNY     78  51  38 NW6       29.99S
FAIRFIELD*     SUNNY     80  53  39 CALM      29.97S HX  80
HARRISBURG*    SUNNY     79  52  38 NW7       30.00S
ROBINSON*      SUNNY     82  51  33 NW7       29.98S HX  81
CARMI*         SUNNY     82  54  38 NW5       29.97F HX  81
$$

ABBREVIATIONS USED IN REMARKS
   TC - TEMPERATURE IN CELSIUS
  WCI - WIND CHILL INDEX
   HX - HEAT INDEX
  VSB - VISIBILITY
$$




USA.gov is the U.S. government's official web portal to all federal, state and local government web resources and services.